Regional Weather Roundup
Issued by NWS Nashville, TN

Home | Current Version | Previous Version | Text Only | Print | Product List | Glossary On
Versions: 1 2 3 4 5 6 7 8 9 10 11 12 13 14 15 16 17 18 19 20 21 22 23 24 25 26 27 28 29 30 31 32 33 34 35 36 37 38 39 40 41 42 43 44 45 46 47 48 49 50
000
ASUS44 KOHX 291710
RWROHX
MIDDLE TENNESSEE HOURLY WEATHER ROUNDUP
NATIONAL WEATHER SERVICE NASHVILLE TN
1200 PM CDT SAT AUG 29 2015

NOTE: "FAIR" INDICATES FEW OR NO CLOUDS BELOW 12,000 FEET WITH
NO SIGNIFICANT WEATHER AND/OR OBSTRUCTIONS TO VISIBILITY.

* THESE REPORTS ARE NOT UNDER NWS QUALITY CONTROL AND MAY NOT
  REPORT WEATHER SUCH AS PRECIPITATION AND FOG.


TNZ005>011-023>034-057-059-062>066-078-080-291800
...NORTHERN MIDDLE TENNESSEE...

CITY           SKY/WX    TMP DP  RH WIND       PRES   REMARKS
CLARKSVILLE    LGT RAIN  85  70  60 MISG      30.11F
CROSSVILLE     MOSUNNY   80  66  62 S9        30.24F
DICKSON        SUNNY     82  70  65 S7        30.14F
NASHVILLE      PTSUNNY   85  68  56 S7        30.14F
ROCKWOOD       MOSUNNY   79  68  69 S8        30.25
SMYRNA         PTSUNNY   78  72  82 VRB5      30.15F
$$
TNZ056-058-060-061-075>077-079-093>097-291800
...SOUTHERN MIDDLE TENNESSEE...

CITY           SKY/WX    TMP DP  RH WIND       PRES   REMARKS
COLUMBIA       PTSUNNY   82  73  74 S6        30.13F
LEWISBURG      PTSUNNY   83  69  62 S5        30.15F
MCMINNVILLE    MOSUNNY   82  72  69 E7        30.18F
SHELBYVILLE    PTSUNNY   82  72  69 S5        30.17F
TULLAHOMA      PTSUNNY   81  68  65 S8        30.18F
WINCHESTER     MOSUNNY   81  70  69 SE6       30.17F
$$


...KEY TO REMARKS...
VSB - VISIBILITY IN MILES
WCI - WIND CHILL INDEX
HX  - HEAT INDEX



USA.gov is the U.S. government's official web portal to all federal, state and local government web resources and services.